Location: Newark
(46.9000°N, 28.3500°E)
Time: 00:43:35
(UTC+00:00)

Transit 2A - All Passes

Search period start: 21 August 2019 00:00
Search period end: 31 August 2019 00:00
Orbit: 597 x 962 km, 66.7° (Epoch: 20 August)

Date Brightness Start Highest point End Pass type
(mag) Time Alt. Az. Time Alt. Az. Time Alt. Az.
21 Aug - 07:01:24 10° S 07:06:41 31° ESE 07:11:39 10° NE daylight
21 Aug - 08:43:44 10° SW 08:49:43 56° NW 08:55:13 10° NNE daylight
21 Aug - 10:30:29 10° WNW 10:34:04 16° NNW 10:37:29 10° N daylight
21 Aug - 14:03:22 10° N 14:05:31 12° NNE 14:07:36 10° NE daylight
21 Aug - 15:45:26 10° NNW 15:50:10 43° NE 15:54:30 10° ESE daylight
21 Aug - 17:29:06 10° NW 17:33:06 27° WSW 17:36:51 10° SSW daylight
22 Aug - 06:28:10 10° SSE 06:32:44 22° ESE 06:37:05 10° ENE daylight
22 Aug - 08:09:25 10° SW 08:15:32 74° NW 08:21:10 10° NNE daylight
22 Aug - 09:55:23 10° W 09:59:37 20° NW 10:03:36 10° NNE daylight
22 Aug - 13:29:53 10° N 13:30:57 11° NNE 13:32:00 10° NNE daylight
22 Aug - 15:11:26 10° NNW 15:15:53 32° NE 15:19:59 10° ESE daylight
22 Aug - 16:54:40 10° NW 16:59:09 40° WSW 17:03:18 10° S daylight
23 Aug - 05:55:23 10° SE 05:58:51 16° ESE 06:02:11 10° ENE daylight
23 Aug - 07:35:16 10° SSW 07:41:24 84° ESE 07:47:03 10° NE daylight
23 Aug - 09:20:26 10° W 09:25:14 25° NW 09:29:41 10° NNE daylight
23 Aug - 14:37:28 10° NNW 14:41:33 24° NE 14:45:19 10° E daylight
23 Aug - 16:20:23 10° NW 16:25:09 60° WSW 16:29:31 10° SSE daylight
24 Aug - 05:23:55 10° ESE 05:25:00 10° ESE 05:26:05 10° E daylight
24 Aug - 07:01:17 10° SSW 07:07:18 62° ESE 07:12:53 10° NE daylight
24 Aug - 08:45:38 10° WSW 08:50:52 31° NW 08:55:44 10° NNE daylight
24 Aug - 10:34:18 10° NW 10:35:50 11° NNW 10:37:20 10° N daylight
24 Aug - 14:03:34 10° NNW 14:07:09 19° NNE 14:10:30 10° E daylight
24 Aug - 15:46:12 10° NW 15:51:05 88° SW 15:55:32 10° SSE daylight
24 Aug - 17:32:12 10° W 17:33:17 11° WSW 17:34:20 10° WSW visible
25 Aug - 06:27:29 10° S 06:33:16 45° ESE 06:38:38 10° NE daylight
25 Aug - 08:10:58 10° WSW 08:16:35 40° NW 08:21:46 10° NNE daylight
25 Aug - 09:58:44 10° NW 10:01:16 13° NNW 10:03:43 10° N daylight
25 Aug - 13:29:44 10° N 13:32:41 15° NNE 13:35:30 10° ENE daylight
25 Aug - 15:12:05 10° NNW 15:16:57 65° NE 15:21:23 10° SE daylight
25 Aug - 16:56:31 10° WNW 16:59:27 17° WSW 17:02:16 10° SW daylight
26 Aug - 05:53:55 10° S 05:59:16 33° ESE 06:04:17 10° NE daylight
26 Aug - 07:36:28 10° SW 07:42:21 52° NW 07:47:45 10° NNE daylight
26 Aug - 09:23:25 10° WNW 09:26:45 16° NNW 09:29:56 10° N daylight
26 Aug - 12:55:58 10° N 12:58:10 13° NNE 13:00:18 10° NE daylight
26 Aug - 14:38:02 10° NNW 14:42:45 45° NE 14:47:04 10° ESE daylight
26 Aug - 16:21:47 10° NW 16:25:36 25° WSW 16:29:11 10° SSW daylight
27 Aug - 05:20:37 10° SSE 05:25:19 24° ESE 05:29:46 10° ENE daylight
27 Aug - 07:02:06 10° SW 07:08:10 69° NW 07:13:42 10° NNE daylight
27 Aug - 08:48:16 10° WNW 08:52:17 19° NNW 08:56:05 10° N daylight
27 Aug - 12:22:29 10° N 12:23:37 11° NNE 12:24:44 10° NNE daylight
27 Aug - 14:04:02 10° NNW 14:08:29 33° NE 14:12:35 10° ESE daylight
27 Aug - 15:47:19 10° NW 15:51:40 36° WSW 15:55:42 10° S daylight
28 Aug - 04:47:43 10° SE 04:51:24 17° ESE 04:54:56 10° ENE daylight
28 Aug - 06:27:54 10° SSW 06:34:01 89° ESE 06:39:36 10° NE daylight
28 Aug - 08:13:16 10° W 08:17:52 23° NW 08:22:11 10° NNE daylight
28 Aug - 13:30:04 10° NNW 13:34:09 25° NE 13:37:57 10° E daylight
28 Aug - 15:13:01 10° NW 15:17:41 54° WSW 15:21:59 10° SSE daylight
29 Aug - 04:15:45 10° ESE 04:17:33 11° ESE 04:19:19 10° E daylight
29 Aug - 05:53:53 10° SSW 05:59:55 66° ESE 06:05:27 10° NE daylight
29 Aug - 07:38:26 10° WSW 07:43:31 29° NW 07:48:14 10° NNE daylight
29 Aug - 09:27:32 10° NNW 09:28:31 10° NNW 09:29:29 10° N daylight
29 Aug - 12:56:09 10° NNW 12:59:46 20° NE 13:03:09 10° E daylight
29 Aug - 14:38:49 10° NW 14:43:38 81° WSW 14:48:03 10° SSE daylight
30 Aug - 05:20:03 10° S 05:25:51 48° ESE 05:31:13 10° NE daylight
30 Aug - 07:03:44 10° WSW 07:09:13 37° NW 07:14:17 10° NNE daylight
30 Aug - 08:51:44 10° NW 08:53:57 12° NNW 08:56:05 10° N daylight
30 Aug - 12:22:18 10° N 12:25:19 16° NNE 12:28:11 10° ENE daylight
30 Aug - 14:04:41 10° NNW 14:09:30 70° NE 14:13:55 10° SE daylight
30 Aug - 15:49:21 10° WNW 15:51:57 15° WSW 15:54:28 10° SW daylight
